Location: Jalan Sepang
(2.8072°N, 101.8021°E)
Time: 05:07:00
(UTC+00:00)

Palapa 6 Rocket - Pass Details

Date: 15 May 2026
Orbit: 481 x 1154 km, 22.7° (Epoch: 7 June)

Event Time Altitude Azimuth Distance (km) Brightness Sun altitude
Exits shadow 21:31:57 29° 189° (S) 1,328 4.4 -21.9°
Drops below altitude 10° 21:35:28 10° 145° (SE) 2,091 5.9 -21.1°
Sets 21:37:52 0° 134° (SE) 2,899 6.8 -20.5°
